Time,TemperatureF,DewpointF,PressureIn,WindDirection,WindDirectionDegrees,WindSpeedMPH,WindSpeedGustMPH,Humidity,HourlyPrecipIn,Conditions,Clouds,dailyrainin,SoftwareType,DateUTC
2013-06-25 00:03:00,71.1,68.6,-100.00,West,270,3.8,-999.0,92,-99.99,,,0.00,Acu-Link.com,2013-06-25 04:03:00,
2013-06-25 00:18:00,70.7,68.6,-100.00,West,270,2.2,-999.0,93,-99.99,,,0.00,Acu-Link.com,2013-06-25 04:18:00,
2013-06-25 00:33:00,70.9,68.4,-100.00,South,180,2.7,-999.0,92,-99.99,,,0.00,Acu-Link.com,2013-06-25 04:33:00,
2013-06-25 00:48:00,70.9,68.1,-100.00,ENE,67,0.0,-999.0,91,-99.99,,,0.00,Acu-Link.com,2013-06-25 04:48:00,
2013-06-25 01:04:00,70.5,68.1,-100.00,West,270,8.9,-999.0,92,-99.99,,,0.00,Acu-Link.com,2013-06-25 05:04:00,
2013-06-25 01:19:00,70.5,68.1,-100.00,NW,315,4.3,-999.0,92,-99.99,,,0.00,Acu-Link.com,2013-06-25 05:19:00,
2013-06-25 01:34:00,70.5,68.1,-100.00,NNW,337,4.3,-999.0,92,-99.99,,,0.00,Acu-Link.com,2013-06-25 05:34:00,
2013-06-25 01:50:00,70.5,68.1,-100.00,West,270,2.2,-999.0,92,-99.99,,,0.00,Acu-Link.com,2013-06-25 05:50:00,
2013-06-25 02:05:00,70.5,68.1,-100.00,WSW,247,4.7,-999.0,92,-99.99,,,0.00,Acu-Link.com,2013-06-25 06:05:00,
2013-06-25 02:20:00,70.9,67.8,-100.00,West,270,3.1,-999.0,90,-99.99,,,0.00,Acu-Link.com,2013-06-25 06:20:00,
2013-06-25 02:35:00,71.1,67.6,-100.00,West,270,8.9,-999.0,89,-99.99,,,0.00,Acu-Link.com,2013-06-25 06:35:00,
2013-06-25 02:51:00,70.7,67.3,-100.00,West,270,6.3,-999.0,89,-99.99,,,0.00,Acu-Link.com,2013-06-25 06:51:00,
2013-06-25 03:06:00,70.5,67.1,-100.00,West,270,3.8,-999.0,89,-99.99,,,0.00,Acu-Link.com,2013-06-25 07:06:00,
2013-06-25 03:21:00,70.3,66.9,-100.00,West,270,5.8,-999.0,89,-99.99,,,0.00,Acu-Link.com,2013-06-25 07:21:00,
2013-06-25 03:36:00,70.7,67.0,-100.00,South,180,2.2,-999.0,88,-99.99,,,0.00,Acu-Link.com,2013-06-25 07:36:00,
2013-06-25 03:52:00,70.7,66.6,-100.00,NNE,22,3.1,-999.0,87,-99.99,,,0.00,Acu-Link.com,2013-06-25 07:52:00,
2013-06-25 04:08:00,70.5,66.5,-100.00,WNW,292,2.7,-999.0,87,-99.99,,,0.00,Acu-Link.com,2013-06-25 08:08:00,
2013-06-25 04:23:00,70.5,66.5,-100.00,West,270,2.7,-999.0,87,-99.99,,,0.00,Acu-Link.com,2013-06-25 08:23:00,
2013-06-25 04:39:00,70.9,66.1,-100.00,WNW,292,5.1,-999.0,85,-99.99,,,0.00,Acu-Link.com,2013-06-25 08:39:00,
2013-06-25 04:54:00,71.1,66.0,-100.00,NNE,22,1.6,-999.0,84,-99.99,,,0.00,Acu-Link.com,2013-06-25 08:54:00,
2013-06-25 05:09:00,70.9,66.1,-100.00,West,270,3.8,-999.0,85,-99.99,,,0.00,Acu-Link.com,2013-06-25 09:09:00,
2013-06-25 05:24:00,71.2,66.1,-100.00,West,270,5.8,-999.0,84,-99.99,,,0.00,Acu-Link.com,2013-06-25 09:24:00,
2013-06-25 05:39:00,71.2,65.8,-100.00,NNW,337,7.8,-999.0,83,-99.99,,,0.00,Acu-Link.com,2013-06-25 09:39:00,
2013-06-25 05:54:00,71.6,65.8,-100.00,WNW,292,5.8,-999.0,82,-99.99,,,0.00,Acu-Link.com,2013-06-25 09:54:00,
2013-06-25 06:09:00,71.6,65.8,-100.00,WNW,292,5.1,-999.0,82,-99.99,,,0.00,Acu-Link.com,2013-06-25 10:09:00,
2013-06-25 06:24:00,71.8,66.0,-100.00,West,270,4.7,-999.0,82,-99.99,,,0.00,Acu-Link.com,2013-06-25 10:24:00,
2013-06-25 06:40:00,72.0,66.2,-100.00,West,270,6.3,-999.0,82,-99.99,,,0.00,Acu-Link.com,2013-06-25 10:40:00,
2013-06-25 06:55:00,72.1,66.0,-100.00,NNW,337,2.7,-999.0,81,-99.99,,,0.00,Acu-Link.com,2013-06-25 10:55:00,
2013-06-25 07:10:00,72.5,66.0,-100.00,WSW,247,3.8,-999.0,80,-99.99,,,0.00,Acu-Link.com,2013-06-25 11:10:00,
2013-06-25 07:25:00,73.6,65.9,-100.00,West,270,6.7,-999.0,77,-99.99,,,0.00,Acu-Link.com,2013-06-25 11:25:00,
2013-06-25 07:41:00,74.7,65.8,-100.00,SE,135,5.8,-999.0,74,-99.99,,,0.00,Acu-Link.com,2013-06-25 11:41:00,
2013-06-25 07:56:00,75.4,65.7,-100.00,West,270,4.7,-999.0,72,-99.99,,,0.00,Acu-Link.com,2013-06-25 11:56:00,
2013-06-25 08:11:00,77.4,66.4,-100.00,West,270,7.4,-999.0,69,-99.99,,,0.00,Acu-Link.com,2013-06-25 12:11:00,
2013-06-25 08:26:00,79.0,67.1,-100.00,WSW,247,7.4,-999.0,67,-99.99,,,0.00,Acu-Link.com,2013-06-25 12:26:00,
2013-06-25 08:41:00,78.8,66.9,-100.00,West,270,2.7,-999.0,67,-99.99,,,0.00,Acu-Link.com,2013-06-25 12:41:00,
2013-06-25 08:57:00,80.1,67.2,-100.00,NW,315,10.3,-999.0,65,-99.99,,,0.00,Acu-Link.com,2013-06-25 12:57:00,
2013-06-25 09:12:00,81.7,67.4,-100.00,West,270,5.8,-999.0,62,-99.99,,,0.00,Acu-Link.com,2013-06-25 13:12:00,
2013-06-25 09:27:00,82.9,68.1,-100.00,WNW,292,5.1,-999.0,61,-99.99,,,0.00,Acu-Link.com,2013-06-25 13:27:00,
2013-06-25 09:43:00,83.7,67.3,-100.00,WNW,292,5.8,-999.0,58,-99.99,,,0.00,Acu-Link.com,2013-06-25 13:43:00,
2013-06-25 09:58:00,84.4,68.0,-100.00,West,270,8.9,-999.0,58,-99.99,,,0.00,Acu-Link.com,2013-06-25 13:58:00,
2013-06-25 10:13:00,85.5,68.5,-100.00,SSW,202,4.3,-999.0,57,-99.99,,,0.00,Acu-Link.com,2013-06-25 14:13:00,
2013-06-25 10:28:00,86.0,68.4,-100.00,NW,315,4.3,-999.0,56,-99.99,,,0.00,Acu-Link.com,2013-06-25 14:28:00,
2013-06-25 10:44:00,87.3,68.6,-100.00,WSW,247,4.7,-999.0,54,-99.99,,,0.00,Acu-Link.com,2013-06-25 14:44:00,
2013-06-25 10:59:00,88.2,69.4,-100.00,SW,225,8.3,-999.0,54,-99.99,,,0.00,Acu-Link.com,2013-06-25 14:59:00,
2013-06-25 11:14:00,88.5,69.7,-100.00,NW,315,11.4,-999.0,54,-99.99,,,0.00,Acu-Link.com,2013-06-25 15:14:00,
2013-06-25 11:30:00,88.7,69.9,-100.00,East,90,4.7,-999.0,54,-99.99,,,0.00,Acu-Link.com,2013-06-25 15:30:00,
2013-06-25 11:45:00,90.1,70.7,-100.00,West,270,6.7,-999.0,53,-99.99,,,0.00,Acu-Link.com,2013-06-25 15:45:00,
2013-06-25 12:00:00,90.5,70.4,-100.00,West,270,9.8,-999.0,52,-99.99,,,0.00,Acu-Link.com,2013-06-25 16:00:00,
2013-06-25 12:16:00,90.0,69.9,-100.00,WNW,292,10.3,-999.0,52,-99.99,,,0.00,Acu-Link.com,2013-06-25 16:16:00,
2013-06-25 12:31:00,90.7,70.6,-100.00,North,0,2.2,-999.0,52,-99.99,,,0.00,Acu-Link.com,2013-06-25 16:31:00,
2013-06-25 12:46:00,92.5,71.7,-100.00,West,270,6.3,-999.0,51,-99.99,,,0.00,Acu-Link.com,2013-06-25 16:46:00,
2013-06-25 13:01:00,92.5,71.7,-100.00,West,270,2.7,-999.0,51,-99.99,,,0.00,Acu-Link.com,2013-06-25 17:01:00,
2013-06-25 13:17:00,93.0,70.4,-100.00,NW,315,8.9,-999.0,48,-99.99,,,0.00,Acu-Link.com,2013-06-25 17:17:00,
2013-06-25 13:32:00,92.8,70.2,-100.00,WNW,292,6.3,-999.0,48,-99.99,,,0.00,Acu-Link.com,2013-06-25 17:32:00,
2013-06-25 13:47:00,91.9,69.4,-100.00,WNW,292,13.4,-999.0,48,-99.99,,,0.00,Acu-Link.com,2013-06-25 17:47:00,
2013-06-25 14:02:00,93.4,69.5,-100.00,West,270,13.0,-999.0,46,-99.99,,,0.00,Acu-Link.com,2013-06-25 18:02:00,
2013-06-25 14:18:00,94.1,69.5,-100.00,SSW,202,7.8,-999.0,45,-99.99,,,0.00,Acu-Link.com,2013-06-25 18:18:00,
2013-06-25 14:33:00,93.9,69.3,-100.00,West,270,3.8,-999.0,45,-99.99,,,0.00,Acu-Link.com,2013-06-25 18:33:00,
2013-06-25 14:48:00,93.7,68.5,-100.00,WSW,247,11.0,-999.0,44,-99.99,,,0.00,Acu-Link.com,2013-06-25 18:48:00,
2013-06-25 15:03:00,93.6,68.3,-100.00,SW,225,5.8,-999.0,44,-99.99,,,0.00,Acu-Link.com,2013-06-25 19:03:00,
2013-06-25 15:18:00,94.1,68.1,-100.00,SW,225,4.7,-999.0,43,-99.99,,,0.00,Acu-Link.com,2013-06-25 19:18:00,
2013-06-25 15:33:00,93.7,67.8,-100.00,West,270,6.3,-999.0,43,-99.99,,,0.00,Acu-Link.com,2013-06-25 19:33:00,
2013-06-25 15:48:00,93.6,67.7,-100.00,West,270,9.4,-999.0,43,-99.99,,,0.00,Acu-Link.com,2013-06-25 19:48:00,
2013-06-25 16:03:00,92.8,68.3,-100.00,West,270,11.9,-999.0,45,-99.99,,,0.00,Acu-Link.com,2013-06-25 20:03:00,
2013-06-25 16:19:00,93.7,70.4,-100.00,WSW,247,5.1,-999.0,47,-99.99,,,0.00,Acu-Link.com,2013-06-25 20:19:00,
2013-06-25 16:34:00,93.7,68.5,-100.00,West,270,7.4,-999.0,44,-99.99,,,0.00,Acu-Link.com,2013-06-25 20:34:00,
2013-06-25 16:49:00,93.6,69.0,-100.00,West,270,11.0,-999.0,45,-99.99,,,0.00,Acu-Link.com,2013-06-25 20:49:00,
2013-06-25 17:04:00,93.6,69.6,-100.00,WNW,292,8.3,-999.0,46,-99.99,,,0.00,Acu-Link.com,2013-06-25 21:04:00,
2013-06-25 17:19:00,93.4,69.5,-100.00,South,180,6.3,-999.0,46,-99.99,,,0.00,Acu-Link.com,2013-06-25 21:19:00,
2013-06-25 17:35:00,92.7,68.8,-100.00,West,270,8.3,-999.0,46,-99.99,,,0.00,Acu-Link.com,2013-06-25 21:35:00,
2013-06-25 17:50:00,92.5,69.3,-100.00,SW,225,6.3,-999.0,47,-99.99,,,0.00,Acu-Link.com,2013-06-25 21:50:00,
2013-06-25 18:05:00,91.6,69.1,-100.00,WNW,292,4.3,-999.0,48,-99.99,,,0.00,Acu-Link.com,2013-06-25 22:05:00,
2013-06-25 18:21:00,91.8,69.8,-100.00,SSW,202,8.3,-999.0,49,-99.99,,,0.00,Acu-Link.com,2013-06-25 22:21:00,
2013-06-25 18:36:00,89.4,70.0,-100.00,SSW,202,3.8,-999.0,53,-99.99,,,0.00,Acu-Link.com,2013-06-25 22:36:00,
2013-06-25 18:51:00,87.6,69.4,-100.00,SW,225,9.4,-999.0,55,-99.99,,,0.00,Acu-Link.com,2013-06-25 22:51:00,
2013-06-25 19:06:00,87.1,69.4,-100.00,WSW,247,7.4,-999.0,56,-99.99,,,0.00,Acu-Link.com,2013-06-25 23:06:00,
2013-06-25 19:21:00,86.7,69.1,-100.00,WSW,247,9.4,-999.0,56,-99.99,,,0.00,Acu-Link.com,2013-06-25 23:21:00,
2013-06-25 19:37:00,86.4,69.3,-100.00,South,180,8.9,-999.0,57,-99.99,,,0.00,Acu-Link.com,2013-06-25 23:37:00,
2013-06-25 19:52:00,85.5,68.5,-100.00,South,180,8.9,-999.0,57,-99.99,,,0.00,Acu-Link.com,2013-06-25 23:52:00,
2013-06-25 20:07:00,84.9,68.5,-100.00,SSW,202,9.4,-999.0,58,-99.99,,,0.00,Acu-Link.com,2013-06-26 00:07:00,
2013-06-25 20:22:00,84.6,69.1,-100.00,WSW,247,5.1,-999.0,60,-99.99,,,0.00,Acu-Link.com,2013-06-26 00:22:00,
2013-06-25 20:37:00,84.0,69.1,-100.00,WSW,247,4.7,-999.0,61,-99.99,,,0.00,Acu-Link.com,2013-06-26 00:37:00,
2013-06-25 20:53:00,83.1,69.2,-100.00,West,270,7.4,-999.0,63,-99.99,,,0.00,Acu-Link.com,2013-06-26 00:53:00,
2013-06-25 21:08:00,81.0,67.2,-100.00,WSW,247,8.9,-999.0,63,-99.99,,,0.00,Acu-Link.com,2013-06-26 01:08:00,
2013-06-25 21:23:00,80.4,66.6,-100.00,SE,135,5.1,-999.0,63,-99.99,,,0.00,Acu-Link.com,2013-06-26 01:23:00,
2013-06-25 21:38:00,80.2,66.5,-100.00,WSW,247,5.8,-999.0,63,-99.99,,,0.00,Acu-Link.com,2013-06-26 01:38:00,
2013-06-25 21:54:00,79.5,66.7,-100.00,SSW,202,6.7,-999.0,65,-99.99,,,0.00,Acu-Link.com,2013-06-26 01:54:00,
2013-06-25 22:09:00,78.8,66.9,-100.00,West,270,8.9,-999.0,67,-99.99,,,0.00,Acu-Link.com,2013-06-26 02:09:00,
2013-06-25 22:24:00,78.1,67.1,-100.00,SW,225,5.8,-999.0,69,-99.99,,,0.00,Acu-Link.com,2013-06-26 02:24:00,
2013-06-25 22:39:00,77.7,67.1,-100.00,West,270,3.8,-999.0,70,-99.99,,,0.00,Acu-Link.com,2013-06-26 02:39:00,
2013-06-25 22:54:00,77.4,67.2,-100.00,West,270,4.7,-999.0,71,-99.99,,,0.00,Acu-Link.com,2013-06-26 02:54:00,
2013-06-25 23:09:00,77.0,67.3,-100.00,WNW,292,3.1,-999.0,72,-99.99,,,0.00,Acu-Link.com,2013-06-26 03:09:00,
2013-06-25 23:24:00,76.6,67.3,-100.00,WSW,247,6.3,-999.0,73,-99.99,,,0.00,Acu-Link.com,2013-06-26 03:24:00,
2013-06-25 23:39:00,76.5,67.5,-100.00,North,0,1.6,-999.0,74,-99.99,,,0.00,Acu-Link.com,2013-06-26 03:39:00,
2013-06-25 23:55:00,76.5,67.9,-100.00,South,180,3.1,-999.0,75,-99.99,,,0.00,Acu-Link.com,2013-06-26 03:55:00,